Hourly Weather Klejdyty

Today, 30 July, Friday

Time Temperature Precipitation Wind Pressure Humidity
00:00 +17°C° 0 mm 2 mps 744 mmHg 80%
01:00 +16°C° 0 mm 3 mps 744 mmHg 81%
02:00 +14°C° 0 mm 3 mps 744 mmHg 82%
03:00 +14°C° 0 mm 3 mps 744 mmHg 83%
04:00 +13°C° 0 mm 3 mps 744 mmHg 84%
05:00 +15°C° 0 mm 4 mps 744 mmHg 79%
06:00 +17°C° 0 mm 4 mps 744 mmHg 73%
07:00 +19°C° 0 mm 5 mps 744 mmHg 68%
08:00 +20°C° 0 mm 6 mps 744 mmHg 61%
09:00 +21°C° 0 mm 7 mps 744 mmHg 55%
10:00 +22°C° 0 mm 7 mps 744 mmHg 49%
11:00 +23°C° 0 mm 7 mps 743 mmHg 46%
12:00 +23°C° 0 mm 7 mps 743 mmHg 44%
13:00 +24°C° 0 mm 7 mps 743 mmHg 41%
14:00 +24°C° 0 mm 7 mps 743 mmHg 43%
15:00 +24°C° 0 mm 6 mps 742 mmHg 44%
16:00 +25°C° 0 mm 5 mps 742 mmHg 45%
17:00 +22°C° 0 mm 5 mps 742 mmHg 51%
18:00 +21°C° 0 mm 4 mps 742 mmHg 56%
19:00 +19°C° 0 mm 3 mps 742 mmHg 62%
20:00 +18°C° 0 mm 3 mps 742 mmHg 63%
21:00 +17°C° 0 mm 3 mps 743 mmHg 64%
22:00 +16°C° 0 mm 3 mps 743 mmHg 65%
23:00 +16°C° 0 mm 3 mps 743 mmHg 68%

Tomorrow, 31 July, Saturday

Time Temperature Precipitation Wind Pressure Humidity
00:00 +14°C° 0 mm 3 mps 743 mmHg 70%
01:00 +14°C° 0 mm 3 mps 743 mmHg 73%
02:00 +13°C° 0 mm 3 mps 743 mmHg 74%
03:00 +13°C° 0 mm 3 mps 743 mmHg 75%
04:00 +13°C° 0 mm 3 mps 742 mmHg 76%
05:00 +14°C° 0 mm 3 mps 743 mmHg 72%
06:00 +17°C° 0 mm 3 mps 743 mmHg 68%
07:00 +19°C° 0 mm 3 mps 743 mmHg 64%
08:00 +20°C° 0 mm 3 mps 743 mmHg 60%
09:00 +22°C° 0 mm 3 mps 743 mmHg 57%
10:00 +25°C° 0 mm 3 mps 743 mmHg 53%
11:00 +26°C° 0 mm 4 mps 742 mmHg 51%
12:00 +27°C° 0 mm 4 mps 742 mmHg 49%
13:00 +27°C° 0 mm 4 mps 742 mmHg 48%
14:00 +27°C° 0 mm 4 mps 742 mmHg 52%
15:00 +26°C° 0 mm 4 mps 741 mmHg 56%
16:00 +26°C° 0 mm 4 mps 741 mmHg 60%
17:00 +23°C° 0.3 mm 4 mps 741 mmHg 67%
18:00 +22°C° 0.3 mm 3 mps 741 mmHg 73%
19:00 +20°C° 0.3 mm 3 mps 740 mmHg 79%
20:00 +19°C° 0 mm 2 mps 741 mmHg 82%
21:00 +18°C° 0 mm 2 mps 741 mmHg 85%
22:00 +17°C° 0 mm 2 mps 742 mmHg 87%
23:00 +16°C° 0 mm 2 mps 742 mmHg 87%

Day after tomorrow, 1 August, Sunday

Time Temperature Precipitation Wind Pressure Humidity
00:00 +16°C° 0 mm 3 mps 742 mmHg 86%
01:00 +14°C° 0 mm 3 mps 742 mmHg 86%
02:00 +14°C° 0 mm 4 mps 742 mmHg 84%
03:00 +13°C° 0 mm 4 mps 742 mmHg 83%
04:00 +13°C° 0 mm 4 mps 742 mmHg 82%
05:00 +14°C° 0 mm 4 mps 742 mmHg 79%
06:00 +17°C° 0 mm 4 mps 743 mmHg 77%
07:00 +17°C° 0 mm 5 mps 743 mmHg 74%
08:00 +19°C° 0 mm 4 mps 743 mmHg 69%
09:00 +21°C° 0 mm 4 mps 743 mmHg 63%
10:00 +22°C° 0 mm 4 mps 743 mmHg 57%
11:00 +22°C° 0 mm 4 mps 743 mmHg 59%
12:00 +22°C° 0 mm 4 mps 743 mmHg 60%
13:00 +22°C° 0 mm 4 mps 744 mmHg 62%
14:00 +21°C° 0.3 mm 4 mps 744 mmHg 69%
15:00 +20°C° 0.3 mm 4 mps 744 mmHg 75%
16:00 +19°C° 0.3 mm 4 mps 744 mmHg 82%
17:00 +18°C° 0.1 mm 3 mps 744 mmHg 84%
18:00 +18°C° 0.1 mm 3 mps 743 mmHg 87%
19:00 +17°C° 0.1 mm 3 mps 743 mmHg 89%
20:00 +16°C° 0 mm 2 mps 743 mmHg 91%
21:00 +16°C° 0 mm 2 mps 743 mmHg 92%
22:00 +15°C° 0 mm 2 mps 743 mmHg 94%
23:00 +15°C° 0.1 mm 2 mps 743 mmHg 94%

2 August, Monday

Time Temperature Precipitation Wind Pressure Humidity
00:00 +14°C° 0.1 mm 2 mps 743 mmHg 94%
01:00 +14°C° 0.1 mm 2 mps 743 mmHg 95%
02:00 +14°C° 0 mm 2 mps 743 mmHg 95%
03:00 +14°C° 0 mm 2 mps 743 mmHg 94%
04:00 +14°C° 0 mm 2 mps 743 mmHg 94%
05:00 +15°C° 0 mm 2 mps 743 mmHg 90%
06:00 +16°C° 0 mm 2 mps 743 mmHg 86%
07:00 +18°C° 0 mm 2 mps 743 mmHg 82%
08:00 +19°C° 0.2 mm 3 mps 743 mmHg 74%
09:00 +21°C° 0.2 mm 4 mps 743 mmHg 66%
10:00 +22°C° 0.2 mm 5 mps 743 mmHg 57%
11:00 +21°C° 0.5 mm 5 mps 743 mmHg 62%
12:00 +21°C° 0.5 mm 5 mps 743 mmHg 67%
13:00 +20°C° 0.5 mm 5 mps 743 mmHg 72%
14:00 +20°C° 0.4 mm 5 mps 743 mmHg 70%
15:00 +20°C° 0.4 mm 5 mps 744 mmHg 69%
16:00 +20°C° 0.4 mm 4 mps 744 mmHg 68%
17:00 +19°C° 0.1 mm 4 mps 744 mmHg 70%
18:00 +18°C° 0.1 mm 3 mps 744 mmHg 72%
19:00 +17°C° 0.1 mm 2 mps 744 mmHg 74%
20:00 +16°C° 0 mm 2 mps 745 mmHg 77%
21:00 +14°C° 0 mm 3 mps 745 mmHg 80%
22:00 +13°C° 0 mm 3 mps 745 mmHg 82%
23:00 +12°C° 0 mm 3 mps 745 mmHg 82%

3 August, Tuesday

Time Temperature Precipitation Wind Pressure Humidity
00:00 +12°C° 0 mm 4 mps 746 mmHg 82%
01:00 +12°C° 0 mm 4 mps 746 mmHg 81%
02:00 +12°C° 0 mm 4 mps 746 mmHg 82%
03:00 +12°C° 0 mm 4 mps 746 mmHg 83%
04:00 +11°C° 0 mm 4 mps 746 mmHg 83%
05:00 +13°C° 0 mm 4 mps 747 mmHg 80%
06:00 +14°C° 0 mm 5 mps 747 mmHg 77%
07:00 +16°C° 0 mm 5 mps 747 mmHg 73%
08:00 +17°C° 0.1 mm 5 mps 747 mmHg 69%
09:00 +19°C° 0.1 mm 5 mps 748 mmHg 65%
10:00 +21°C° 0.1 mm 5 mps 748 mmHg 60%
11:00 +21°C° 0.2 mm 5 mps 748 mmHg 58%
12:00 +22°C° 0.2 mm 5 mps 748 mmHg 55%
13:00 +22°C° 0.2 mm 4 mps 748 mmHg 52%
14:00 +21°C° 0.1 mm 4 mps 748 mmHg 56%
15:00 +21°C° 0.1 mm 3 mps 748 mmHg 61%
16:00 +20°C° 0.1 mm 2 mps 748 mmHg 65%
17:00 +19°C° 0 mm 2 mps 748 mmHg 69%
18:00 +18°C° 0 mm 2 mps 748 mmHg 72%
19:00 +18°C° 0 mm 1 mps 748 mmHg 76%
20:00 +16°C° 0 mm 1 mps 749 mmHg 79%
21:00 +16°C° 0 mm 1 mps 749 mmHg 82%
22:00 +15°C° 0 mm 1 mps 749 mmHg 84%
23:00 +15°C° 0 mm 1 mps 749 mmHg 83%

4 August, Wednesday

Time Temperature Precipitation Wind Pressure Humidity
00:00 +15°C° 0 mm 1 mps 749 mmHg 82%
01:00 +15°C° 0 mm 1 mps 749 mmHg 81%
02:00 +15°C° 0 mm 1 mps 749 mmHg 80%
03:00 +15°C° 0 mm 1 mps 749 mmHg 79%
04:00 +16°C° 0 mm 1 mps 749 mmHg 79%
05:00 +15°C° 0.6 mm 1 mps 749 mmHg 84%
06:00 +15°C° 0.6 mm 1 mps 750 mmHg 89%
07:00 +15°C° 0.6 mm 1 mps 750 mmHg 93%
08:00 +15°C° 0.7 mm 1 mps 750 mmHg 94%
09:00 +15°C° 0.7 mm 1 mps 750 mmHg 95%
10:00 +15°C° 0.7 mm 2 mps 750 mmHg 95%
11:00 +15°C° 0.5 mm 2 mps 750 mmHg 94%
12:00 +16°C° 0.5 mm 2 mps 750 mmHg 92%
13:00 +16°C° 0.5 mm 2 mps 750 mmHg 91%
14:00 +16°C° 0.2 mm 2 mps 749 mmHg 89%
15:00 +17°C° 0.2 mm 2 mps 749 mmHg 87%
16:00 +17°C° 0.2 mm 2 mps 749 mmHg 85%
17:00 +17°C° 0.2 mm 2 mps 749 mmHg 87%
18:00 +16°C° 0.2 mm 1 mps 749 mmHg 90%
19:00 +15°C° 0.2 mm 1 mps 749 mmHg 92%
20:00 +15°C° 0 mm 1 mps 749 mmHg 93%
21:00 +15°C° 0 mm 1 mps 749 mmHg 93%
22:00 +14°C° 0 mm 1 mps 749 mmHg 94%
23:00 +14°C° 0 mm 1 mps 749 mmHg 94%
Show more